Weather reports worldwide

Advertisment
Shoeburyness Landwick, United Kingdom (3693): temperature & dewpoint: 23.04.2017 06:00:00 - 29.04.2017 06:00:00 (BST)Shoeburyness Landwick, United Kingdom (3693): temperature -20cm & temperature -100cm: 23.04.2017 06:00:00 - 29.04.2017 06:00:00 (BST)Shoeburyness Landwick, United Kingdom (3693): wind speed & gusts: 23.04.2017 06:00:00 - 29.04.2017 06:00:00 (BST)Shoeburyness Landwick, United Kingdom (3693): wind direction: 23.04.2017 06:00:00 - 29.04.2017 06:00:00 (BST)Shoeburyness Landwick, United Kingdom (3693): reduced air pressure: 23.04.2017 06:00:00 - 29.04.2017 06:00:00 (BST)Shoeburyness Landwick, United Kingdom (3693): visibility: 23.04.2017 06:00:00 - 29.04.2017 06:00:00 (BST)Shoeburyness Landwick, United Kingdom (3693): sunshine duration: 23.04.2017 06:00:00 - 29.04.2017 06:00:00 (BST)Shoeburyness Landwick, United Kingdom (3693): precipitation: 23.04.2017 06:00:00 - 29.04.2017 06:00:00 (BST)
Date & Time tt [°C] td [°C] tt -20cm [°C] tt -100cm [°C] ff [km/h] ff [kn] fx [km/h] fx [kn] dd ppp [hPa] vv [km] sd [min] rr [mm]
29.04.2017 06:00:00 7,0 5,6 - - 11 6 - - SSW 1016,3 9 0 0,0
29.04.2017 05:00:00 9,0 7,1 - - 9 5 - - WSW 1016,1 12 0 0,0
29.04.2017 04:00:00 9,0 7,7 - - 9 5 - - SSW 1016,1 9 0 0,0
29.04.2017 03:00:00 9,1 7,7 - - 9 5 - - SSW 1016,3 12 0 0,0
29.04.2017 02:00:00 9,5 7,8 - - 9 5 - - SSW 1016,4 12 0 0,0
29.04.2017 01:00:00 9,5 7,8 - - 11 6 - - S 1016,8 12 - 0,0
29.04.2017 00:00:00 9,7 7,7 - - 9 5 - - S 1017,1 13 0 0,0
28.04.2017 23:00:00 9,4 7,2 - - 9 5 - - S 1017,1 16 0 0,0
28.04.2017 22:00:00 10,2 5,8 - - 9 5 - - SSE 1017,2 40 0 0,0
28.04.2017 21:00:00 9,8 5,2 - - 9 5 - - SE 1016,9 45 0 0,0
28.04.2017 20:00:00 10,4 3,7 - - 9 5 - - SE 1016,7 45 0 0,0
28.04.2017 19:00:00 12,0 2,9 - - 8 4 - - NNE 1016,4 45 0 0,0
28.04.2017 18:00:00 12,9 2,4 - - 11 6 - - NNW 1016,6 45 12 0,0
28.04.2017 17:00:00 12,6 2,3 - - 15 8 - - NNW 1016,5 35 54 0,0
28.04.2017 16:00:00 13,5 3,1 - - 16 9 - - NNW 1016,6 40 36 0,0
28.04.2017 15:00:00 12,2 3,8 - - 16 9 - - NNW 1017,0 35 12 0,0
28.04.2017 14:00:00 11,7 4,4 - - 16 9 - - NNW 1017,0 30 0 0,0
28.04.2017 13:00:00 10,9 4,0 - - 16 9 - - N 1016,9 35 0 0,0
28.04.2017 12:00:00 11,2 4,5 - - 16 9 - - NNW 1016,9 35 18 0,0
28.04.2017 11:00:00 10,1 3,2 - - 15 8 - - NNW 1016,9 35 24 0,0
28.04.2017 10:00:00 9,8 3,2 10,7 11,2 21 11 - - N 1016,8 45 60 0,0
28.04.2017 09:00:00 8,8 4,0 - - 22 12 - - NNW 1016,7 30 60 0,0
28.04.2017 08:00:00 7,7 5,3 - - 21 11 - - N 1016,5 23 60 0,0
28.04.2017 07:00:00 6,2 4,9 - - 13 7 - - N 1016,3 20 24 0,0
28.04.2017 06:00:00 6,2 5,7 - - 11 6 - - NW 1016,1 5 0 0,0
28.04.2017 05:00:00 6,5 6,1 - - 9 5 - - NW 1015,8 3,6 0 0,2
28.04.2017 04:00:00 6,6 6,1 - - 8 4 - - NW 1015,8 4,3 0 0,0
28.04.2017 03:00:00 6,8 6,2 - - 15 8 - - NW 1015,8 7 0 0,0
28.04.2017 02:00:00 6,4 5,8 - - 11 6 - - NW 1015,9 8 0 0,0
28.04.2017 01:00:00 6,2 5,6 - - 11 6 - - WNW 1016,0 8 - 0,0
28.04.2017 00:00:00 6,0 5,3 - - 11 6 - - WNW 1016,0 9 0 0,0
27.04.2017 23:00:00 6,9 6,0 - - 8 4 - - W 1016,1 9 0 0,0
27.04.2017 22:00:00 7,7 6,3 - - 11 6 - - W 1016,3 16 0 0,0
27.04.2017 21:00:00 7,8 6,6 - - 9 5 - - WSW 1016,3 13 0 0,6
27.04.2017 20:00:00 8,0 5,9 - - 13 7 - - W 1016,3 21 0 0,2
27.04.2017 19:00:00 8,2 5,1 - - 13 7 - - W 1016,5 29 0 0,2
27.04.2017 18:00:00 8,2 5,9 - - 9 5 - - W 1016,8 14 0 0,4
27.04.2017 17:00:00 8,7 5,0 - - 13 7 - - W 1017,1 29 0 0,2
27.04.2017 16:00:00 8,4 3,8 - - 18 10 - - W 1017,5 19 0 0,2
27.04.2017 15:00:00 9,9 1,2 - - 13 7 - - WNW 1017,8 50 0 0,0
27.04.2017 14:00:00 10,3 1,1 - - 15 8 - - WNW 1018,0 45 30 0,0
27.04.2017 13:00:00 9,8 0,0 - - 18 10 - - NW 1018,3 35 6 0,0
27.04.2017 12:00:00 9,0 0,6 - - 21 11 - - WNW 1018,8 35 6 0,0
27.04.2017 11:00:00 9,1 1,5 - - 16 9 - - WNW 1019,3 30 60 0,0
27.04.2017 10:00:00 8,0 3,1 10,7 11,2 16 9 - - WNW 1019,6 18 30 0,0
27.04.2017 09:00:00 6,6 2,9 - - 15 8 - - NW 1020,0 16 60 0,0
27.04.2017 08:00:00 3,9 2,3 - - 11 6 - - NW 1020,0 14 60 0,0
27.04.2017 07:00:00 1,2 0,8 - - 11 6 - - WNW 1019,8 13 48 0,0
27.04.2017 06:00:00 -0,5 -0,8 - - 13 7 - - WNW 1019,8 8 0 0,0
27.04.2017 05:00:00 -0,7 -1,1 - - 11 6 - - WNW 1019,7 12 0 0,0
27.04.2017 04:00:00 0,0 -0,4 - - 11 6 - - NW 1019,7 11 0 0,0
27.04.2017 03:00:00 0,5 0,1 - - 13 7 - - NW 1019,9 11 0 0,0
27.04.2017 02:00:00 0,5 0,2 - - 13 7 - - NW 1019,9 15 0 0,0
27.04.2017 01:00:00 0,6 0,3 - - 13 7 - - NW 1020,1 15 - 0,0
27.04.2017 00:00:00 0,3 -0,1 - - 9 5 - - NW 1020,1 12 0 0,2
26.04.2017 23:00:00 0,9 0,5 - - 13 7 - - NW 1020,1 13 0 0,0
26.04.2017 22:00:00 1,2 0,6 - - 11 6 - - NW 1019,9 16 0 0,0
26.04.2017 21:00:00 2,7 2,2 - - 9 5 - - W 1019,4 30 0 0,0
26.04.2017 20:00:00 3,6 2,5 - - 8 4 - - NNW 1019,1 50 0 0,0
26.04.2017 19:00:00 5,0 3,3 - - 35 19 48 26 NE 1018,7 35 6 0,6
26.04.2017 18:00:00 6,8 2,6 - - 2 1 - - SSE 1018,0 50 6 0,0
26.04.2017 17:00:00 5,7 4,3 - - 5 3 - - NNE 1018,1 17 6 1,0
26.04.2017 16:00:00 9,2 4,3 - - 21 11 - - NW 1017,4 28 42 0,2
26.04.2017 15:00:00 5,9 3,1 - - 22 12 50 27 N 1017,7 40 24 0,4
26.04.2017 14:00:00 8,1 3,0 - - 18 10 - - N 1017,4 40 24 0,0
26.04.2017 13:00:00 7,7 3,3 - - 26 14 46 25 NNW 1017,3 45 36 0,4
26.04.2017 12:00:00 8,2 1,6 - - 24 13 - - NNW 1016,8 45 36 0,0
26.04.2017 11:00:00 9,1 3,0 - - 24 13 - - N 1016,7 28 30 0,0
26.04.2017 10:00:00 6,6 2,3 11,2 11,4 26 14 - - NNW 1016,7 40 48 0,0
26.04.2017 09:00:00 5,8 2,8 - - 26 14 - - NNW 1016,3 35 30 0,0
26.04.2017 08:00:00 4,6 2,5 - - 28 15 - - NNW 1015,9 20 60 0,0
26.04.2017 07:00:00 2,9 2,0 - - 21 11 - - NNW 1015,5 18 48 0,0
26.04.2017 06:00:00 2,1 1,2 - - 18 10 - - NNW 1014,9 15 0 0,0
26.04.2017 05:00:00 2,2 1,4 - - 21 11 - - NNW 1014,6 14 0 0,0
26.04.2017 04:00:00 1,6 0,8 - - 18 10 - - NNW 1014,7 19 0 0,0
26.04.2017 03:00:00 1,9 0,9 - - 18 10 - - NNW 1014,7 30 0 0,0
26.04.2017 02:00:00 1,4 0,6 - - 15 8 - - NW 1014,9 28 0 0,0
26.04.2017 01:00:00 2,0 1,1 - - 15 8 - - NW 1014,9 29 - 0,0
26.04.2017 00:00:00 2,0 0,9 - - 13 7 - - NW 1014,8 40 0 0,0
25.04.2017 23:00:00 2,9 1,0 - - 15 8 - - NNW 1014,5 50 0 0,0
25.04.2017 22:00:00 2,7 0,7 - - 13 7 - - NW 1014,3 50 0 0,0
25.04.2017 21:00:00 3,7 0,2 - - 13 7 - - NW 1013,8 50 0 0,0
25.04.2017 20:00:00 5,3 0,2 - - 16 9 - - NNW 1013,4 50 54 0,0
25.04.2017 19:00:00 7,5 0,1 - - 29 16 - - NNW 1012,9 45 36 0,0
25.04.2017 18:00:00 10,1 -2,2 - - 16 9 - - N 1012,2 50 48 0,0
25.04.2017 17:00:00 10,9 -2,8 - - 22 12 - - NNW 1012,5 35 54 0,0
25.04.2017 16:00:00 10,6 -4,3 - - 18 10 - - NW 1012,8 50 48 0,0
25.04.2017 15:00:00 10,8 -2,5 - - 15 8 - - NW 1013,2 35 36 0,0
25.04.2017 14:00:00 10,1 -2,0 - - 16 9 - - N 1013,3 30 30 0,0
25.04.2017 13:00:00 10,3 -1,9 - - 18 10 - - NNW 1013,4 35 36 0,0
25.04.2017 12:00:00 8,4 -1,9 - - 21 11 - - N 1013,4 50 48 0,0
25.04.2017 11:00:00 8,6 -0,1 - - 18 10 - - NNW 1013,5 35 60 0,0
25.04.2017 10:00:00 7,1 0,2 11,7 11,2 18 10 - - NNW 1013,5 50 60 0,0
25.04.2017 09:00:00 5,3 -0,3 - - 22 12 - - NW 1013,3 50 60 0,0
25.04.2017 08:00:00 3,6 -1,8 - - 26 14 - - NW 1013,0 30 60 0,0
25.04.2017 07:00:00 2,2 -2,1 - - 21 11 - - WNW 1012,5 35 54 0,0
25.04.2017 06:00:00 1,4 -2,4 - - 18 10 - - WNW 1012,1 35 0 0,0
25.04.2017 05:00:00 1,1 -2,1 - - 15 8 - - WNW 1011,8 40 0 0,0
25.04.2017 04:00:00 1,7 -1,9 - - 15 8 - - WNW 1011,8 40 0 0,0
25.04.2017 03:00:00 2,4 -2,3 - - 18 10 - - WNW 1011,9 40 0 0,0
25.04.2017 02:00:00 3,4 -2,8 - - 21 11 - - WNW 1011,9 40 0 0,0
25.04.2017 01:00:00 4,1 -3,0 - - 22 12 - - NW 1011,9 45 - 0,0
25.04.2017 00:00:00 5,7 -2,3 - - 26 14 - - NW 1011,8 45 0 0,0
24.04.2017 23:00:00 7,7 -0,9 - - 29 16 - - NW 1011,8 50 0 0,0
24.04.2017 22:00:00 8,4 3,6 - - 22 12 - - NW 1011,6 50 0 0,0
24.04.2017 21:00:00 8,9 6,1 - - 13 7 - - W 1011,5 50 0 0,0
24.04.2017 20:00:00 9,2 7,6 - - 13 7 - - NW 1011,4 45 0 0,0
24.04.2017 19:00:00 9,5 8,6 - - 11 6 - - NW 1011,5 19 0 0,8
24.04.2017 18:00:00 12,2 6,9 - - 16 9 - - W 1011,3 45 0 0,0
24.04.2017 17:00:00 13,2 6,9 - - 16 9 - - WSW 1011,6 45 0 0,0
24.04.2017 16:00:00 13,4 6,4 - - 18 10 - - WSW 1012,3 50 0 0,0
24.04.2017 15:00:00 14,2 5,6 - - 21 11 - - W 1013,1 40 0 0,0
24.04.2017 14:00:00 13,7 6,6 - - 18 10 - - W 1014,0 45 6 0,0
24.04.2017 13:00:00 12,2 8,8 - - 11 6 - - WNW 1014,9 30 0 0,0
24.04.2017 12:00:00 13,3 6,8 - - 16 9 - - WNW 1015,6 45 0 0,0
24.04.2017 11:00:00 14,5 7,2 - - 13 7 - - W 1016,2 35 36 0,0
24.04.2017 10:00:00 13,6 6,7 12,2 11,2 11 6 - - W 1016,6 30 60 0,0
24.04.2017 09:00:00 11,4 6,9 - - 11 6 - - W 1017,1 22 48 0,0
24.04.2017 08:00:00 9,1 6,2 - - 11 6 - - W 1017,6 11 18 0,0
24.04.2017 07:00:00 8,4 6,6 - - 9 5 - - W 1017,9 8 6 0,0
24.04.2017 06:00:00 7,3 5,7 - - 5 3 - - NW 1018,2 3,4 0 0,0
24.04.2017 05:00:00 8,3 6,9 - - 9 5 - - WSW 1018,5 5 0 0,0
24.04.2017 04:00:00 8,4 6,7 - - 11 6 - - W 1019,1 6 0 0,0
24.04.2017 03:00:00 7,4 5,4 - - 11 6 - - WNW 1019,8 7 0 0,0
24.04.2017 02:00:00 8,8 6,1 - - 16 9 - - WSW 1020,4 11 0 0,0
24.04.2017 01:00:00 8,5 6,1 - - 13 7 - - WSW 1021,1 10 - 0,0
24.04.2017 00:00:00 9,0 6,2 - - 16 9 - - SW 1021,9 11 0 0,0
23.04.2017 23:00:00 9,4 6,7 - - 15 8 - - SW 1022,3 12 0 0,0
23.04.2017 22:00:00 9,9 6,9 - - 22 12 - - SW 1022,9 12 0 0,0
23.04.2017 21:00:00 10,3 6,8 - - 21 11 - - SSW 1023,0 14 0 0,0
23.04.2017 20:00:00 11,4 6,7 - - 22 12 - - S 1022,8 17 6 0,0
23.04.2017 19:00:00 11,9 6,3 - - 26 14 - - S 1023,1 20 42 0,0
23.04.2017 18:00:00 12,9 5,6 - - 24 13 - - S 1023,6 30 18 0,0
23.04.2017 17:00:00 13,9 6,1 - - 15 8 - - S 1024,0 30 48 0,0
23.04.2017 16:00:00 13,3 4,6 - - 16 9 - - SE 1024,8 45 54 0,0
23.04.2017 15:00:00 12,9 4,4 - - 18 10 - - ESE 1025,6 45 54 0,0
23.04.2017 14:00:00 12,7 3,2 - - 18 10 - - ESE 1026,3 40 60 0,0
23.04.2017 13:00:00 12,1 2,5 - - 13 7 - - SE 1027,0 45 30 0,0
23.04.2017 12:00:00 11,1 0,9 - - 13 7 - - S 1027,7 30 30 0,0
23.04.2017 11:00:00 10,4 2,4 - - 13 7 - - S 1028,0 40 6 0,0
23.04.2017 10:00:00 9,5 3,2 12,2 11,2 8 4 - - SSE 1028,2 45 0 0,0
23.04.2017 09:00:00 8,8 3,2 - - 4 2 - - ENE 1028,2 50 0 0,0
23.04.2017 08:00:00 8,1 4,2 - - 4 2 - - N 1028,2 40 0 0,0
23.04.2017 07:00:00 7,2 4,6 - - 4 2 - - WNW 1027,9 45 0 0,0
23.04.2017 06:00:00 6,8 3,9 - - 4 2 - - N 1027,8 50 0 0,0

tt = temperature
td = dewpoint
tt -20cm = temperature -20cm
tt -100cm = temperature -100cm
ff = wind speed
fx = gusts
dd = wind direction
ppp = reduced air pressure
vv = visibility
sd = sunshine duration
rr = precipitation

Next stations